User: anonymous   Login
Location: Mercogliano
(40.9167°N, 14.7333°E)
Time: 23:30:03
(UTC+00:00)
Language:

Cosmos 1437 - Orbit

View from above orbital plane
View from above orbital plane
View from above satellite
View from above satellite

Ground track
Ground track

The orbit data is extracted from the following two-line orbital elements,

1 13770U 83003A   20332.59701604 +.00023601 +00000-0 +21175-3 0  9995
2 13770 081.1588 024.3121 0003358 084.4243 275.7396 15.68126935082463
Epoch (UTC): 27 November 2020 14:19:42
Eccentricity: 0.0003358
inclination: 81.1588°
perigee height: 362 km
apogee height: 366 km
right ascension of ascending node: 24.3121°
argument of perigee: 84.4243°
revolutions per day: 15.68126935
mean anomaly at epoch: 275.7396°
orbit number at epoch: 8246

The dashed part of the orbit path shows where the satellite is in the earth's shadow,  

DLR